(7694) Krasetin = 1983 SF = 1962 UE = 1996 AM1 = 1984 YY3

Discovered at Klet on 1983-09-29 by A. Mrkos.
(7694) Krasetín = 1983 SF

Krasetín is a small village east of the Klet mountain. It is the nearest village to the Klet Observatory. The name was suggested by M. Tichy. [Ref: Minor Planet Circ. 45232]

Orbit

Orbit type: Main Belt

Note: WebGL enabled browser required.

epoch2024-03-31.0
epoch JD2460400.5
perihelion date2020-10-08.35743
perihelion JD2459130.85744
argument of perihelion (°)47.45986
ascending node (°)291.94638
inclination (°)10.41787
eccentricity0.1501731
perihelion distance (AU)2.5899006
Tisserand w.r.t. Jupiter3.2
ΔV w.r.t. Earth (km/sec)10.6
semimajor axis (AU)3.0475626
mean anomaly (°)235.21045
mean daily motion (°/day)0.18525720
aphelion distance (AU)3.505
period (years)5.32
P-vector [x]0.92483192
P-vector [y]-0.37987686
P-vector [z]-0.01948069
Q-vector [x]0.34140185
Q-vector [y]0.80639995
Q-vector [z]0.48287048
absolute magnitude12.39
phase slope0.15
uncertainty0
referenceE2024-H18
observations used4396
oppositions27
arc length (days)22448
first opposition used1962
last opposition used2024
residual rms (arc-secs)0.48
perturbers coarse indicatorM-v
perturbers precise indicator003Ek
first observation date used1962-10-31.0
last observation date used2024-04-16.0
computer nameMPCLINUX
JD of orbit computation2456909.221978
perihelion JD uncertainty (days)9.3311E-05
argument of perihelion uncertainty (°)2.8920E-05
ascending node uncertainty (°)2.4826E-05
inclination uncertainty (°)5.0660E-06
eccentricity uncertainty 5.1408E-08
perihelion distance uncertainty (AU)1.5557E-07
Minimum Orbit Intersection Distances (in AU)
for orbit epoch: 2460400.5, reference: E2024-H18
Mercury2.20251
Venus1.87964
Earth1.59335
Mars1.2416
Jupiter1.88916
Saturn5.72829
Uranus14.984
Neptune26.8172

Observations

3970 total observations over interval: 1962 10 31.08 – 2024 03 21.327592
These data are available for download (format description).

Date (UT) J2000 RA J2000 Dec Magn Location Ref
1962 10 31.08 01 14.5 +25 24 17.0   760 – Goethe Link Observatory, Brooklyn MPC 2230
1962 10 31.08357 01 15 34.53 +25 25 06.3 17.0   760 – Goethe Link Observatory, Brooklyn MPC 12534
1962 10 31.12873 01 15 32.33 +25 24 49.7   760 – Goethe Link Observatory, Brooklyn MPC 12534
1983 09 29.78148 23 05 39.95 +10 27 58.9 16.8   046 – Klet Observatory, Ceske Budejovice MPC 8224
1983 09 29.79572 23 05 39.38 +10 27 55.1   046 – Klet Observatory, Ceske Budejovice MPC 8224
1983 10 01.78681 23 04 20.83 +10 18 49.8   046 – Klet Observatory, Ceske Budejovice MPC 8224
1983 10 01.80093 23 04 20.39 +10 18 47.5   046 – Klet Observatory, Ceske Budejovice MPC 8224
1983 10 03.94479 23 03 00.36 +10 08 46.5   046 – Klet Observatory, Ceske Budejovice MPC 8224
1983 10 03.95903 23 02 59.74 +10 08 47.7   046 – Klet Observatory, Ceske Budejovice MPC 8224
1983 10 05.78322 23 01 56.51 +10 00 06.6   046 – Klet Observatory, Ceske Budejovice MPC 8224
1983 10 05.79740 23 01 55.91 +10 00 02.4   046 – Klet Observatory, Ceske Budejovice MPC 8224
1984 12 27.92439 06 09 13.31 +28 25 19.5 17.0   095 – Crimea-Nauchnyi MPC 9897
1984 12 29.90953 06 07 18.07 +28 20 09.0 17.5   095 – Crimea-Nauchnyi MPC 9899
1994 10 01.37378 02 02 33.13 +29 02 35.1   675 – Palomar Mountain MPC 29400
1994 10 01.40191 02 02 31.88 +29 02 34.4   675 – Palomar Mountain MPC 29400
1996 01 11.76563 08 00 54.62 +19 32 18.4 17.8   114 – Engelhardt Observatory, Zelenchukskaya Station MPC 26600
1996 01 11.80139 08 00 52.72 +19 32 18.8   114 – Engelhardt Observatory, Zelenchukskaya Station MPC 26600
1996 01 12.76979 07 59 59.93 +19 32 28.6   114 – Engelhardt Observatory, Zelenchukskaya Station MPC 26600
1996 01 13.75903 07 59 05.79 +19 32 37.6   114 – Engelhardt Observatory, Zelenchukskaya Station MPC 26600
1996 01 14.77153 07 58 10.12 +19 32 48.8   114 – Engelhardt Observatory, Zelenchukskaya Station MPC 26620
1996 01 16.76840 07 56 20.43 +19 33 07.4   114 – Engelhardt Observatory, Zelenchukskaya Station MPC 26620
1997 03 12.93178 11 32 29.87 -11 16 51.1 18.0 V 046 – Klet Observatory, Ceske Budejovice MPC 29344
1997 03 12.93366 11 32 29.79 -11 16 50.2   046 – Klet Observatory, Ceske Budejovice MPC 29344
1997 03 12.93590 11 32 29.69 -11 16 49.9   046 – Klet Observatory, Ceske Budejovice MPC 29344
1997 04 09.97119 11 12 45.59 -09 12 10.8 17.9 V 046 – Klet Observatory, Ceske Budejovice MPC 29344
1997 04 09.97321 11 12 45.49 -09 12 10.2   046 – Klet Observatory, Ceske Budejovice MPC 29344
1997 04 09.97543 11 12 45.43 -09 12 09.7   046 – Klet Observatory, Ceske Budejovice MPC 29344
1997 06 02.86279 11 09 51.79 -06 39 32.9 18.1 V 046 – Klet Observatory, Ceske Budejovice MPC 29976
1997 06 02.86525 11 09 51.82 -06 39 32.4   046 – Klet Observatory, Ceske Budejovice MPC 29976
1997 06 02.86896 11 09 51.87 -06 39 32.6   046 – Klet Observatory, Ceske Budejovice MPC 29976
1997 06 04.86481 11 10 44.66 -06 39 38.9 17.9 V 046 – Klet Observatory, Ceske Budejovice MPC 29976
1997 06 04.86676 11 10 44.72 -06 39 38.5   046 – Klet Observatory, Ceske Budejovice MPC 29976
1997 06 04.86939 11 10 44.84 -06 39 38.4   046 – Klet Observatory, Ceske Budejovice MPC 29976
1999 07 23.35878 23 46 54.88 +09 57 45.1 17.5   704 – Lincoln Laboratory ETS, New Mexico MPS 5791
1999 07 23.37135 23 46 54.97 +09 57 50.3 17.8   704 – Lincoln Laboratory ETS, New Mexico MPS 5791
1999 07 23.38388 23 46 55.03 +09 57 56.4 17.5   704 – Lincoln Laboratory ETS, New Mexico MPS 5791
1999 07 23.39639 23 46 55.09 +09 58 01.5 17.8   704 – Lincoln Laboratory ETS, New Mexico MPS 5791
1999 07 23.40893 23 46 55.15 +09 58 06.8 17.6   704 – Lincoln Laboratory ETS, New Mexico MPS 5791
1999 09 07.32704 23 28 08.05 +12 25 37.2 16.0 R 703 – Catalina Sky Survey MPS 6539
1999 09 07.33837 23 28 07.46 +12 25 36.7 16.0 R 703 – Catalina Sky Survey MPS 6539
1999 09 07.34971 23 28 06.90 +12 25 36.1 16.0 R 703 – Catalina Sky Survey MPS 6539
1999 09 07.36115 23 28 06.21 +12 25 35.3 16.0 R 703 – Catalina Sky Survey MPS 6539
1999 09 08.33129 23 27 19.54 +12 24 10.6 15.7   704 – Lincoln Laboratory ETS, New Mexico MPS 6539
1999 09 08.34535 23 27 18.81 +12 24 09.0 14.3   704 – Lincoln Laboratory ETS, New Mexico MPS 6539
1999 09 08.35885 23 27 18.14 +12 24 08.0 14.5   704 – Lincoln Laboratory ETS, New Mexico MPS 6539
1999 09 08.37253 23 27 17.45 +12 24 06.7 13.9   704 – Lincoln Laboratory ETS, New Mexico MPS 6539
1999 09 08.38611 23 27 16.77 +12 24 05.6 14.5   704 – Lincoln Laboratory ETS, New Mexico MPS 6539
1999 09 16.22047 23 20 52.19 +12 06 13.5 15.9   704 – Lincoln Laboratory ETS, New Mexico MPS 6539
1999 09 16.24133 23 20 51.15 +12 06 09.4 15.6   704 – Lincoln Laboratory ETS, New Mexico MPS 6539
1999 09 16.25182 23 20 50.58 +12 06 07.5 15.8   704 – Lincoln Laboratory ETS, New Mexico MPS 6539
1999 09 16.26227 23 20 50.05 +12 06 05.9 16.4   704 – Lincoln Laboratory ETS, New Mexico MPS 6539
1999 10 02.22140 23 08 48.34 +11 02 49.1 16.4 R 703 – Catalina Sky Survey MPS 7146
1999 10 02.23369 23 08 47.85 +11 02 45.7 16.4 R 703 – Catalina Sky Survey MPS 7146
1999 10 02.24595 23 08 47.34 +11 02 42.2 16.4 R 703 – Catalina Sky Survey MPS 7146
1999 10 02.25820 23 08 46.83 +11 02 38.8 16.4 R 703 – Catalina Sky Survey MPS 7146
1999 10 04.23118 23 07 32.06 +10 53 18.1 16.4   704 – Lincoln Laboratory ETS, New Mexico MPS 7146
1999 10 04.24450 23 07 31.50 +10 53 14.2 16.3   704 – Lincoln Laboratory ETS, New Mexico MPS 7146
1999 10 04.25788 23 07 31.00 +10 53 10.3 16.2   704 – Lincoln Laboratory ETS, New Mexico MPS 7146
1999 10 04.28473 23 07 29.99 +10 53 02.2 16.5   704 – Lincoln Laboratory ETS, New Mexico MPS 7146
1999 10 10.17940 23 04 14.27 +10 24 28.1 16.6   704 – Lincoln Laboratory ETS, New Mexico MPS 7146
1999 10 10.21031 23 04 13.25 +10 24 18.2 17.2   704 – Lincoln Laboratory ETS, New Mexico MPS 7146
1999 10 10.22577 23 04 12.78 +10 24 13.9 17.1   704 – Lincoln Laboratory ETS, New Mexico MPS 7146
1999 10 10.24114 23 04 12.23 +10 24 09.0 17.2   704 – Lincoln Laboratory ETS, New Mexico MPS 7146
1999 10 14.85331 23 02 11.98 +10 01 51.0 16.5   132 – Bedoin MPS 7146
1999 10 14.87755 23 02 11.39 +10 01 44.0 16.5   132 – Bedoin MPS 7146
1999 10 14.90000 23 02 10.84 +10 01 37.6 16.5   132 – Bedoin MPS 7146
1999 10 15.09211 23 02 06.64 +10 00 43.9 16.5 R 699 – Lowell Observatory-LONEOS MPS 8220
1999 10 15.11753 23 02 06.09 +10 00 37.6   699 – Lowell Observatory-LONEOS MPS 8220
1999 10 15.14295 23 02 05.47 +10 00 29.5   699 – Lowell Observatory-LONEOS MPS 8220
1999 10 19.12377 23 00 48.34 +09 41 54.2 17.7   704 – Lincoln Laboratory ETS, New Mexico MPS 7146
1999 10 19.13744 23 00 48.12 +09 41 49.4 18.6   704 – Lincoln Laboratory ETS, New Mexico MPS 7146
1999 10 19.15109 23 00 47.88 +09 41 45.3 18.6   704 – Lincoln Laboratory ETS, New Mexico MPS 7146
1999 10 19.16472 23 00 47.62 +09 41 41.4 18.6   704 – Lincoln Laboratory ETS, New Mexico MPS 7146
1999 10 19.17837 23 00 47.30 +09 41 36.9 18.0   704 – Lincoln Laboratory ETS, New Mexico MPS 7146
1999 11 05.16490 22 59 53.84 +08 36 54.7 18.7   704 – Lincoln Laboratory ETS, New Mexico MPS 7652
1999 11 05.18100 22 59 54.02 +08 36 50.4 19.8   704 – Lincoln Laboratory ETS, New Mexico MPS 7652
1999 11 05.19716 22 59 54.17 +08 36 46.6 19.4   704 – Lincoln Laboratory ETS, New Mexico MPS 7652
1999 11 05.22927 22 59 54.43 +08 36 40.1 18.4   704 – Lincoln Laboratory ETS, New Mexico MPS 7652
1999 11 10.08534 23 01 01.27 +08 24 11.9 16.8 R 703 – Catalina Sky Survey MPS 7652
1999 11 10.09766 23 01 01.46 +08 24 10.1 16.7 R 703 – Catalina Sky Survey MPS 7652
1999 11 10.11001 23 01 01.66 +08 24 08.4 16.8 R 703 – Catalina Sky Survey MPS 7652
1999 11 10.12235 23 01 01.85 +08 24 07.0 16.7 R 703 – Catalina Sky Survey MPS 7652
1999 11 26.15338 23 08 37.85 +08 05 59.5 16.7 R 699 – Lowell Observatory-LONEOS MPS 13321
1999 11 26.17889 23 08 38.79 +08 05 59.3   699 – Lowell Observatory-LONEOS MPS 13321
1999 11 26.20439 23 08 39.80 +08 05 59.6   699 – Lowell Observatory-LONEOS MPS 13321
1999 12 05.07296 23 15 08.92 +08 11 27.5 18.3   704 – Lincoln Laboratory ETS, New Mexico MPS 8220
